Time,TemperatureF,DewpointF,PressureIn,WindDirection,WindDirectionDegrees,WindSpeedMPH,WindSpeedGustMPH,Humidity,HourlyPrecipIn,Conditions,Clouds,dailyrainin,SoftwareType,DateUTC
2013-03-03 00:02:00,30.0,23.0,30.20,NNW,327,2.0,0.0,74,0.00,,,0.01,,2013-03-03 06:02:00,
2013-03-03 00:11:00,30.0,23.0,30.20,NNW,327,2.0,0.0,74,0.00,,,0.01,,2013-03-03 06:11:00,
2013-03-03 00:21:00,29.0,22.0,30.20,NNW,327,2.0,0.0,74,0.00,,,0.01,,2013-03-03 06:21:00,
2013-03-03 00:32:00,29.0,22.0,30.20,NNW,327,2.0,2.0,76,0.00,,,0.01,,2013-03-03 06:32:00,
2013-03-03 00:42:00,29.0,22.0,30.20,NNW,327,2.0,2.0,76,0.00,,,0.01,,2013-03-03 06:42:00,
2013-03-03 00:52:00,28.0,22.0,30.20,NNW,327,2.0,0.0,77,0.00,,,0.01,,2013-03-03 06:52:00,
2013-03-03 01:01:00,28.0,22.0,30.19,NNW,327,2.0,0.0,78,0.00,,,0.01,,2013-03-03 07:01:00,
2013-03-03 01:11:00,28.0,22.0,30.19,NNW,327,2.0,0.0,78,0.00,,,0.01,,2013-03-03 07:11:00,
2013-03-03 01:21:00,28.0,22.0,30.19,NNW,327,2.0,0.0,78,0.00,,,0.01,,2013-03-03 07:21:00,
2013-03-03 01:31:00,27.0,22.0,30.19,NNW,327,2.0,0.0,81,0.00,,,0.01,,2013-03-03 07:31:00,
2013-03-03 01:42:00,27.0,22.0,30.19,NNW,327,2.0,0.0,81,0.00,,,0.01,,2013-03-03 07:42:00,
2013-03-03 01:51:00,26.0,21.0,30.19,NNW,327,2.0,0.0,82,0.00,,,0.01,,2013-03-03 07:51:00,
2013-03-03 02:01:00,25.0,21.0,30.18,NNW,327,2.0,0.0,83,0.00,,,0.01,,2013-03-03 08:01:00,
2013-03-03 02:11:00,25.0,21.0,30.18,NNW,327,2.0,0.0,83,0.00,,,0.01,,2013-03-03 08:11:00,
2013-03-03 02:21:00,25.0,21.0,30.18,NNW,327,2.0,0.0,84,0.00,,,0.01,,2013-03-03 08:21:00,
2013-03-03 02:31:00,25.0,21.0,30.18,NNW,327,2.0,0.0,85,0.00,,,0.01,,2013-03-03 08:31:00,
2013-03-03 02:40:00,24.0,20.0,30.17,NNW,327,2.0,0.0,85,0.00,,,0.01,,2013-03-03 08:40:00,
2013-03-03 02:41:00,25.0,21.0,30.18,NNW,327,2.0,0.0,85,0.00,,,0.01,,2013-03-03 08:41:00,
2013-03-03 02:53:00,25.0,21.0,30.18,NNW,327,2.0,0.0,85,0.00,,,0.01,,2013-03-03 08:53:00,
2013-03-03 03:01:00,24.0,20.0,30.17,NNW,327,2.0,0.0,85,0.00,,,0.01,,2013-03-03 09:01:00,
2013-03-03 03:11:00,24.0,20.0,30.17,NNW,327,2.0,0.0,85,0.00,,,0.01,,2013-03-03 09:11:00,
2013-03-03 03:21:00,24.0,20.0,30.17,NNW,327,2.0,0.0,85,0.00,,,0.01,,2013-03-03 09:21:00,
2013-03-03 03:32:00,24.0,20.0,30.17,NNW,327,2.0,0.0,85,0.00,,,0.01,,2013-03-03 09:32:00,
2013-03-03 03:52:00,23.0,20.0,30.18,NNW,327,2.0,0.0,88,0.00,,,0.01,,2013-03-03 09:52:00,
2013-03-03 04:01:00,22.0,19.0,30.17,NNW,327,2.0,0.0,88,0.00,,,0.01,,2013-03-03 10:01:00,
2013-03-03 04:11:00,22.0,19.0,30.17,NNW,327,2.0,0.0,88,0.00,,,0.01,,2013-03-03 10:11:00,
2013-03-03 04:21:00,22.0,19.0,30.17,NNW,327,2.0,0.0,89,0.00,,,0.01,,2013-03-03 10:21:00,
2013-03-03 04:32:00,22.0,20.0,30.17,NNW,327,2.0,0.0,90,0.00,,,0.01,,2013-03-03 10:32:00,
2013-03-03 04:42:00,22.0,20.0,30.17,NNW,327,2.0,0.0,90,0.00,,,0.01,,2013-03-03 10:42:00,
2013-03-03 04:52:00,22.0,20.0,30.17,NNW,327,2.0,0.0,90,0.00,,,0.01,,2013-03-03 10:52:00,
2013-03-03 05:01:00,22.0,20.0,30.17,NNW,327,2.0,0.0,91,0.00,,,0.01,,2013-03-03 11:01:00,
2013-03-03 05:11:00,22.0,20.0,30.17,NNW,327,2.0,0.0,91,0.00,,,0.01,,2013-03-03 11:11:00,
2013-03-03 05:21:00,21.0,19.0,30.17,NNW,327,2.0,0.0,90,0.00,,,0.01,,2013-03-03 11:21:00,
2013-03-03 05:32:00,21.0,19.0,30.16,NNW,327,2.0,0.0,91,0.00,,,0.01,,2013-03-03 11:32:00,
2013-03-03 05:42:00,21.0,19.0,30.16,NNW,327,2.0,0.0,91,0.00,,,0.01,,2013-03-03 11:42:00,
2013-03-03 05:52:00,21.0,19.0,30.16,NNW,327,2.0,0.0,91,0.00,,,0.01,,2013-03-03 11:52:00,
2013-03-03 06:01:00,21.0,19.0,30.16,NNW,327,2.0,0.0,91,0.00,,,0.01,,2013-03-03 12:01:00,
2013-03-03 06:11:00,21.0,19.0,30.16,NNW,327,2.0,0.0,91,0.00,,,0.01,,2013-03-03 12:11:00,
2013-03-03 06:21:00,21.0,19.0,30.17,NNW,327,2.0,0.0,91,0.00,,,0.01,,2013-03-03 12:21:00,
2013-03-03 06:32:00,21.0,19.0,30.17,NNW,327,2.0,0.0,92,0.00,,,0.01,,2013-03-03 12:32:00,
2013-03-03 06:42:00,21.0,19.0,30.17,NNW,327,2.0,0.0,92,0.00,,,0.01,,2013-03-03 12:42:00,
2013-03-03 06:52:00,21.0,19.0,30.17,NNW,327,2.0,0.0,92,0.00,,,0.01,,2013-03-03 12:52:00,
2013-03-03 07:01:00,21.0,19.0,30.17,NNW,327,2.0,0.0,92,0.00,,,0.01,,2013-03-03 13:01:00,
2013-03-03 07:11:00,21.0,19.0,30.17,NNW,327,2.0,0.0,92,0.00,,,0.01,,2013-03-03 13:11:00,
2013-03-03 07:21:00,21.0,19.0,30.17,NNW,327,2.0,0.0,92,0.00,,,0.01,,2013-03-03 13:21:00,
2013-03-03 07:32:00,21.0,19.0,30.17,NNW,327,2.0,0.0,92,0.00,,,0.01,,2013-03-03 13:32:00,
2013-03-03 07:42:00,21.0,19.0,30.17,NNW,327,2.0,0.0,92,0.00,,,0.01,,2013-03-03 13:42:00,
2013-03-03 07:52:00,22.0,20.0,30.18,NNW,327,2.0,0.0,93,0.00,,,0.01,,2013-03-03 13:52:00,
2013-03-03 08:02:00,26.0,25.0,30.19,NNW,327,2.0,0.0,95,0.00,,,0.01,,2013-03-03 14:02:00,
2013-03-03 08:11:00,26.0,25.0,30.19,NNW,327,2.0,0.0,95,0.00,,,0.01,,2013-03-03 14:11:00,
2013-03-03 08:21:00,27.0,26.0,30.20,NW,314,4.0,4.0,95,0.00,,,0.01,,2013-03-03 14:21:00,
2013-03-03 08:32:00,32.0,24.0,30.21,NNW,334,2.0,4.0,73,0.00,,,0.01,,2013-03-03 14:32:00,
2013-03-03 08:42:00,32.0,24.0,30.21,NNW,334,2.0,4.0,73,0.00,,,0.01,,2013-03-03 14:42:00,
2013-03-03 08:52:00,33.0,23.0,30.21,NNW,330,3.0,4.0,66,0.00,,,0.01,,2013-03-03 14:52:00,
2013-03-03 09:01:00,34.0,23.0,30.21,WNW,298,2.0,3.0,64,0.00,,,0.01,,2013-03-03 15:01:00,
2013-03-03 09:11:00,34.0,23.0,30.21,WNW,298,2.0,3.0,64,0.00,,,0.01,,2013-03-03 15:11:00,
2013-03-03 09:22:00,34.0,22.0,30.21,WSW,242,2.0,5.0,61,0.00,,,0.01,,2013-03-03 15:22:00,
2013-03-03 09:32:00,35.0,23.0,30.20,SW,236,6.0,6.0,62,0.00,,,0.01,,2013-03-03 15:32:00,
2013-03-03 09:42:00,35.0,23.0,30.20,SW,236,6.0,6.0,62,0.00,,,0.01,,2013-03-03 15:42:00,
2013-03-03 09:52:00,35.0,22.0,30.20,NNE,15,4.0,4.0,59,0.00,,,0.01,,2013-03-03 15:52:00,
2013-03-03 10:01:00,38.0,23.0,30.21,North,360,4.0,4.0,54,0.00,,,0.01,,2013-03-03 16:01:00,
2013-03-03 10:12:00,38.0,23.0,30.21,North,360,4.0,4.0,54,0.00,,,0.01,,2013-03-03 16:12:00,
2013-03-03 10:21:00,37.0,23.0,30.20,NNE,28,4.0,5.0,56,0.00,,,0.01,,2013-03-03 16:21:00,
2013-03-03 10:32:00,37.0,23.0,30.20,NNE,28,4.0,5.0,56,0.00,,,0.01,,2013-03-03 16:32:00,
2013-03-03 10:42:00,37.0,23.0,30.20,NNE,28,4.0,5.0,56,0.00,,,0.01,,2013-03-03 16:42:00,
2013-03-03 10:52:00,39.0,23.0,30.20,SSW,200,2.0,7.0,53,0.00,,,0.00,,2013-03-03 16:52:00,
2013-03-03 11:01:00,40.0,22.0,30.21,SW,215,5.0,10.0,49,0.00,,,0.00,,2013-03-03 17:01:00,
2013-03-03 11:11:00,40.0,23.0,30.20,NW,305,3.0,7.0,50,0.00,,,0.00,,2013-03-03 17:11:00,
2013-03-03 11:22:00,40.0,23.0,30.20,NW,305,3.0,7.0,50,0.00,,,0.00,,2013-03-03 17:22:00,
2013-03-03 11:32:00,42.0,22.0,30.20,NNW,331,2.0,10.0,44,0.00,,,0.00,,2013-03-03 17:32:00,
2013-03-03 11:42:00,42.0,22.0,30.20,NNW,331,2.0,10.0,44,0.00,,,0.00,,2013-03-03 17:42:00,
2013-03-03 11:52:00,42.0,22.0,30.20,NNW,331,2.0,10.0,44,0.00,,,0.00,,2013-03-03 17:52:00,
2013-03-03 12:01:00,44.0,23.0,30.19,WSW,254,7.0,11.0,44,0.00,,,0.00,,2013-03-03 18:01:00,
2013-03-03 12:11:00,44.0,23.0,30.19,WSW,254,7.0,11.0,44,0.00,,,0.00,,2013-03-03 18:11:00,
2013-03-03 12:21:00,44.0,23.0,30.19,WSW,254,7.0,11.0,44,0.00,,,0.00,,2013-03-03 18:21:00,
2013-03-03 12:32:00,44.0,23.0,30.17,WSW,254,2.0,9.0,44,0.00,,,0.00,,2013-03-03 18:32:00,
2013-03-03 12:42:00,44.0,23.0,30.17,WSW,254,2.0,9.0,44,0.00,,,0.00,,2013-03-03 18:42:00,
2013-03-03 12:52:00,45.0,24.0,30.17,WSW,237,3.0,10.0,43,0.00,,,0.00,,2013-03-03 18:52:00,
2013-03-03 13:02:00,44.0,23.0,30.15,North,360,7.0,10.0,43,0.00,,,0.00,,2013-03-03 19:02:00,
2013-03-03 13:11:00,44.0,23.0,30.15,North,360,7.0,10.0,43,0.00,,,0.00,,2013-03-03 19:11:00,
2013-03-03 13:21:00,44.0,23.0,30.14,SSW,192,5.0,7.0,43,0.00,,,0.00,,2013-03-03 19:21:00,
2013-03-03 13:32:00,43.0,21.0,30.13,SW,217,2.0,6.0,41,0.00,,,0.00,,2013-03-03 19:32:00,
2013-03-03 13:42:00,43.0,21.0,30.13,SW,217,2.0,6.0,41,0.00,,,0.00,,2013-03-03 19:42:00,
2013-03-03 13:51:00,43.0,21.0,30.13,SW,217,2.0,6.0,41,0.00,,,0.00,,2013-03-03 19:51:00,
2013-03-03 14:01:00,47.0,24.0,30.12,West,263,3.0,7.0,40,0.00,,,0.00,,2013-03-03 20:01:00,
2013-03-03 14:11:00,47.0,24.0,30.12,West,263,3.0,7.0,40,0.00,,,0.00,,2013-03-03 20:11:00,
2013-03-03 14:21:00,47.0,23.0,30.11,WNW,294,4.0,6.0,38,0.00,,,0.00,,2013-03-03 20:21:00,
2013-03-03 14:32:00,45.0,22.0,30.10,South,182,5.0,12.0,39,0.00,,,0.00,,2013-03-03 20:32:00,
2013-03-03 14:42:00,45.0,22.0,30.10,South,182,5.0,12.0,39,0.00,,,0.00,,2013-03-03 20:42:00,
2013-03-03 14:52:00,45.0,22.0,30.10,South,182,5.0,12.0,39,0.00,,,0.00,,2013-03-03 20:52:00,
2013-03-03 15:02:00,45.0,21.0,30.09,WSW,254,7.0,9.0,38,0.00,,,0.00,,2013-03-03 21:02:00,
2013-03-03 15:11:00,45.0,21.0,30.09,WSW,254,7.0,9.0,38,0.00,,,0.00,,2013-03-03 21:11:00,
2013-03-03 15:22:00,45.0,21.0,30.08,WNW,295,2.0,5.0,38,0.00,,,0.00,,2013-03-03 21:22:00,
2013-03-03 15:32:00,46.0,21.0,30.08,SSE,165,10.0,10.0,36,0.00,,,0.00,,2013-03-03 21:32:00,
2013-03-03 15:42:00,46.0,21.0,30.08,SSE,165,10.0,10.0,36,0.00,,,0.00,,2013-03-03 21:42:00,
2013-03-03 15:52:00,47.0,21.0,30.08,SW,223,2.0,8.0,35,0.00,,,0.00,,2013-03-03 21:52:00,
2013-03-03 16:01:00,46.0,21.0,30.06,SSW,206,3.0,4.0,37,0.00,,,0.00,,2013-03-03 22:01:00,
2013-03-03 16:11:00,46.0,21.0,30.06,SSW,206,3.0,4.0,37,0.00,,,0.00,,2013-03-03 22:11:00,
2013-03-03 16:21:00,46.0,21.0,30.06,East,98,2.0,4.0,37,0.00,,,0.00,,2013-03-03 22:21:00,
2013-03-03 16:32:00,46.0,22.0,30.06,SSE,167,2.0,5.0,38,0.00,,,0.00,,2013-03-03 22:32:00,
2013-03-03 16:42:00,46.0,22.0,30.06,SSE,167,2.0,5.0,38,0.00,,,0.00,,2013-03-03 22:42:00,
2013-03-03 16:52:00,46.0,21.0,30.06,SW,233,3.0,6.0,37,0.00,,,0.00,,2013-03-03 22:52:00,
2013-03-03 17:01:00,46.0,21.0,30.05,SSW,207,2.0,7.0,37,0.00,,,0.00,,2013-03-03 23:01:00,
2013-03-03 17:11:00,46.0,21.0,30.05,SSW,207,2.0,7.0,37,0.00,,,0.00,,2013-03-03 23:11:00,
2013-03-03 17:21:00,46.0,21.0,30.05,SSW,207,2.0,5.0,36,0.00,,,0.00,,2013-03-03 23:21:00,
2013-03-03 17:32:00,45.0,22.0,30.06,SSW,198,2.0,4.0,40,0.00,,,0.00,,2013-03-03 23:32:00,
2013-03-03 17:42:00,45.0,22.0,30.06,SSW,198,2.0,4.0,40,0.00,,,0.00,,2013-03-03 23:42:00,
2013-03-03 17:52:00,45.0,23.0,30.06,SSW,198,4.0,6.0,41,0.00,,,0.00,,2013-03-03 23:52:00,
2013-03-03 18:01:00,45.0,23.0,30.06,SSW,198,5.0,5.0,42,0.00,,,0.00,,2013-03-04 00:01:00,
2013-03-03 18:11:00,45.0,23.0,30.06,SSW,198,5.0,5.0,42,0.00,,,0.00,,2013-03-04 00:11:00,
2013-03-03 18:21:00,45.0,23.0,30.06,SSW,198,5.0,5.0,42,0.00,,,0.00,,2013-03-04 00:21:00,
2013-03-03 18:32:00,45.0,23.0,30.06,SSW,198,5.0,5.0,42,0.00,,,0.00,,2013-03-04 00:32:00,